Bloomington, IN

2:48 AM EDT on May 24, 2018 (GMT -0400)
Monroe County

Weather History for KBMG - January, 2005

Change the Weather History Date:

Monday, January 17, 2005

  Actual Average Record
Temperature  
Mean Temperature 10 °F 29 °F  
Max Temperature 18 °F 38 °F 60 °F (2017)
Min Temperature 1 °F 20 °F -4 °F (1997)
Degree Days  
Heating Degree Days 56 36  
Month to date heating degree days 612  
Since 1 July heating degree days 2685  
Cooling Degree Days 0 0  
Month to date cooling degree days 0  
Year to date cooling degree days 0  
Moisture  
Dew Point -1 °F    
Average Humidity 65    
Maximum Humidity 87    
Minimum Humidity 41    
Precipitation  
Precipitation 0.00 in 0.12 in 1.23 in (2012)
Month to date precipitation 2.12  
Year to date precipitation 2.12  
Sea Level Pressure  
Sea Level Pressure 30.75 in    
Wind  
Wind Speed 5 mph (WNW)    
Max Wind Speed 13 mph    
Max Gust Speed 17 mph    
Visibility 10 miles    
Events      
T = Trace of Precipitation, MM = Missing Value Source: NWS Daily Summary

Daily Weather History Graph

Daily Weather History Graph

Search for Another Location

Airport or City:

Astronomy

Jan. 17, 2005 Rise Set
Actual Time 8:03 AM EST 5:50 PM EST
Civil Twilight 7:34 AM EST 6:19 PM EST
Nautical Twilight 7:01 AM EST 6:52 PM EST
Astronomical Twilight 6:29 AM EST 7:24 PM EST
Moon 12:17 PM EST (1/17) 1:13 AM EST (1/17)
Length of Visible Light 10h 45m
Length of Day
9h 47m
First Quarter, 54% of the Moon is Illuminated
Jan 17
First Quarter
Jan 25
Full
Feb 2
Last Quarter
Feb 8
New
Feb 15
First Quarter

Hourly Weather History & Observations

Time (EST) Temp. Windchill Dew Point Humidity Pressure Visibility Wind Dir Wind Speed Gust Speed Precip Events Conditions
12:53 AM 6.1 °F -2.8 °F -0.9 °F 73% 30.73 in 10.0 mi West 4.6 mph - N/A   Clear
1:53 AM 6.1 °F - -0.0 °F 76% 30.72 in 10.0 mi Calm Calm - N/A   Clear
2:53 AM 3.0 °F - -0.9 °F 84% 30.72 in 10.0 mi Calm Calm - N/A   Clear
4:53 AM 5.0 °F -2.1 °F -0.9 °F 76% 30.72 in 10.0 mi NW 3.5 mph - N/A   Clear
6:53 AM 3.0 °F - -2.0 °F 80% 30.74 in 10.0 mi Calm Calm - N/A   Clear
7:53 AM 1.0 °F -6.7 °F -2.0 °F 87% 30.74 in 10.0 mi NW 3.5 mph - N/A   Clear
8:53 AM 3.9 °F -5.3 °F -0.9 °F 80% 30.76 in 10.0 mi West 4.6 mph - N/A   Clear
9:53 AM 7.0 °F -5.7 °F 1.0 °F 77% 30.77 in 10.0 mi West 8.1 mph - N/A   Clear
10:53 AM 10.0 °F -2.9 °F -0.0 °F 64% 30.78 in 10.0 mi West 9.2 mph - N/A   Clear
11:53 AM 12.9 °F 2.6 °F -2.0 °F 51% 30.77 in 10.0 mi Variable 6.9 mph - N/A   Clear
12:53 PM 16.0 °F 2.9 °F -2.0 °F 45% 30.74 in 10.0 mi West 11.5 mph - N/A   Clear
1:53 PM 17.1 °F 3.6 °F -2.0 °F 43% 30.72 in 10.0 mi West 12.7 mph 17.3 mph N/A   Clear
2:53 PM 18.0 °F 6.1 °F -0.9 °F 44% 30.72 in 10.0 mi WNW 10.4 mph - N/A   Clear
3:53 PM 17.1 °F 3.6 °F -2.0 °F 43% 30.73 in 10.0 mi West 12.7 mph - N/A   Clear
4:53 PM 17.1 °F 6.6 °F -2.9 °F 41% 30.74 in 10.0 mi WNW 8.1 mph - N/A   Clear
6:53 PM 12.9 °F 2.6 °F -2.0 °F 51% 30.76 in 10.0 mi West 6.9 mph - N/A   Clear
7:53 PM 10.9 °F 2.9 °F -0.9 °F 59% 30.79 in 10.0 mi WNW 4.6 mph - N/A   Clear
8:53 PM 10.9 °F 2.9 °F -0.0 °F 61% 30.79 in 10.0 mi WNW 4.6 mph - N/A   Clear
9:53 PM 10.0 °F - -0.0 °F 64% 30.79 in 10.0 mi Calm Calm - N/A   Clear
10:53 PM 6.1 °F - 1.9 °F 83% 30.80 in 10.0 mi Calm Calm - N/A   Clear
11:53 PM 3.9 °F - -0.0 °F 84% 30.82 in 10.0 mi Calm Calm - N/A   Clear